Regional Weather Roundup
Issued by NWS

Home | Current Version | Previous Version | Text Only | Print | Product List | Glossary Off
Versions: 1 2 3 4 5 6 7 8 9 10 11 12 13 14 15 16 17 18 19 20 21 22 23 24 25 26 27 28 29 30 31 32 33 34 35 36 37 38 39 40 41 42 43 44 45 46 47 48 49 50

000
ASUS43 KOAX 271902
RWRNE

WEATHER ROUNDUP FOR NEBRASKA
NATIONAL WEATHER SERVICE OMAHA NE
200 PM CDT MON MAR 27 2017

NOTES: SATELLITE DATA IS BEING USED TO AUGMENT CLOUD COVER ABOVE
       12000 FEET.
       "FAIR" INDICATES FEW OR NO CLOUDS BELOW 12,000 FEET WITH NO
       SIGNIFICANT WEATHER AND/OR OBSTRUCTIONS TO VISIBILITY.

  * THESE STATIONS DO NOT REPORT WEATHER SUCH AS RAIN...SNOW OR FOG.

NEZ001>004-019>022-054>056-272000-
NEBRASKA PANHANDLE

CITY           SKY/WX    TMP DP  RH WIND       PRES   REMARKS
SCOTTSBLUFF    CLOUDY    63  26  24 W12G22    29.84F
ALLIANCE       SUNNY     63  27  25 SW13      29.84F
CHADRON        SUNNY     61  35  37 VRB5      29.82F
KIMBALL        PTSUNNY   59  32  36 SW7       29.89S
SIDNEY         MOSUNNY   62  35  36 S18       29.88F
$$

NEZ057>060-069>072-079>082-272000-
SOUTHWEST NEBRASKA

CITY           SKY/WX    TMP DP  RH WIND       PRES   REMARKS
NORTH PLATTE   SUNNY     61  42  49 SE6       29.91F
IMPERIAL       SUNNY     61  38  42 VRB3      29.91F
LEXINGTON      CLOUDY    49  44  84 CALM      29.96F
MCCOOK         SUNNY     61  41  47 S6        29.91F
OGALLALA       SUNNY     62  35  35 SW3       29.90F
$$

NEZ005>010-023>029-035>040-094-272000-
NORTH CENTRAL NEBRASKA

CITY           SKY/WX    TMP DP  RH WIND       PRES   REMARKS
VALENTINE      SUNNY     57  40  52 S14       29.90F
AINSWORTH      SUNNY     54  43  67 S6        29.92F
BROKEN BOW     CLOUDY    51  43  74 CALM      29.95F
O`NEILL        SUNNY     54  37  52 SE6       29.95F
ORD            CLOUDY    53  40  61 VRB3      29.94F
THEDFORD       SUNNY     52  46  79 SE7       29.92F
$$

NEZ041-046>049-061>064-073>077-083>087-272000-
SOUTH CENTRAL NEBRASKA

CITY           SKY/WX    TMP DP  RH WIND       PRES   REMARKS
GRAND ISLAND   CLOUDY    48  42  80 CALM      29.98F
AURORA         CLOUDY    48  42  80 W3        29.97F
HASTINGS       CLOUDY    47  42  83 CALM      29.98F
HEBRON         CLOUDY    48  43  82 N5        29.98S
HOLDREGE       PTSUNNY   53  44  72 CALM      29.96F
KEARNEY *      CLOUDY    50  39  66 CALM      29.97F
YORK           CLOUDY    48  43  81 N7        29.98F
$$

NEZ011>018-030>034-042>045-272000-
NORTHEAST NEBRASKA

CITY           SKY/WX    TMP DP  RH WIND       PRES   REMARKS
NORFOLK        SUNNY     53  36  52 N6        29.95F
ALBION         SUNNY     53  38  58 S6        29.96F
FREMONT        CLOUDY    49  40  72 N7        29.99F
TEKAMAH        CLOUDY    51  41  68 N6        29.99F
WAYNE          MOSUNNY   55  39  55 CALM      29.96F
$$

NEZ050>053-065>068-078-088>093-272000-
SOUTHEAST NEBRASKA

CITY           SKY/WX    TMP DP  RH WIND       PRES   REMARKS
LINCOLN        CLOUDY    51  41  68 N9        29.99F
OMAHA EPPLEY   CLOUDY    50  39  66 N7        29.98F
BEATRICE       CLOUDY    51  45  80 N10       29.97F
NEBRASKA CITY  CLOUDY    51  40  66 N9        29.97S
PLATTSMOUTH    CLOUDY    50  38  65 N7        29.97F
$$

NEZ044-045-051>053-067-272000-
OMAHA AREA

CITY           SKY/WX    TMP DP  RH WIND       PRES   REMARKS
OMAHA EPPLEY   CLOUDY    50  39  66 N7        29.98F
FREMONT        CLOUDY    49  40  72 N7        29.99F
MILLARD        CLOUDY    51  42  71 NE5       29.98S
OFFUTT AFB     CLOUDY    49  40  71 NE6       29.98S
PLATTSMOUTH    CLOUDY    50  38  65 N7        29.97F
WAHOO          CLOUDY    50  41  71 N9        29.98F
$$



USA.gov is the U.S. government's official web portal to all federal, state and local government web resources and services.